• In Deutschland
  • Länderverzeichnis
  • Für 7 Tage
  • Wassertemperatur
  • Satellitenkarten
  • Wetterkarte
  • Widgets
  • user-avatar
    Anmelden

    Stündliche Wetter Mingachevir

    Heute, 25 April, Mittwoch

    Zeit Temperatur Niederschläge Wind Luftdruck Luftfeuchtigkeit
    00:00 +12°C° 0 mm 4 m/S 758 mmHg 76%
    01:00 +12°C° 0 mm 3 m/S 758 mmHg 76%
    02:00 +13°C° 0 mm 2 m/S 758 mmHg 76%
    03:00 +13°C° 0 mm 2 m/S 757 mmHg 77%
    04:00 +13°C° 0 mm 2 m/S 757 mmHg 76%
    05:00 +13°C° 0 mm 1 m/S 757 mmHg 76%
    06:00 +13°C° 0 mm 1 m/S 757 mmHg 75%
    07:00 +14°C° 0 mm 1 m/S 757 mmHg 72%
    08:00 +15°C° 0 mm 1 m/S 757 mmHg 68%
    09:00 +16°C° 0 mm 2 m/S 756 mmHg 63%
    10:00 +17°C° 0 mm 2 m/S 756 mmHg 58%
    11:00 +19°C° 0 mm 2 m/S 755 mmHg 54%
    12:00 +20°C° 0 mm 2 m/S 755 mmHg 50%
    13:00 +21°C° 0 mm 2 m/S 755 mmHg 48%
    14:00 +22°C° 0 mm 1 m/S 754 mmHg 46%
    15:00 +23°C° 0 mm 1 m/S 754 mmHg 44%
    16:00 +23°C° 0 mm 1 m/S 753 mmHg 47%
    17:00 +21°C° 0 mm 2 m/S 753 mmHg 49%
    18:00 +21°C° 0 mm 2 m/S 753 mmHg 52%
    19:00 +20°C° 0 mm 2 m/S 754 mmHg 56%
    20:00 +19°C° 0 mm 2 m/S 754 mmHg 60%
    21:00 +17°C° 0 mm 2 m/S 755 mmHg 63%
    22:00 +17°C° 0 mm 2 m/S 755 mmHg 66%
    23:00 +16°C° 0 mm 2 m/S 755 mmHg 69%

    Morgen, 26 April, Donnerstag

    Zeit Temperatur Niederschläge Wind Luftdruck Luftfeuchtigkeit
    00:00 +16°C° 0 mm 2 m/S 755 mmHg 72%
    01:00 +15°C° 0 mm 1 m/S 755 mmHg 75%
    02:00 +14°C° 0 mm 1 m/S 755 mmHg 78%
    03:00 +14°C° 0 mm 1 m/S 755 mmHg 82%
    04:00 +14°C° 0 mm 1 m/S 755 mmHg 81%
    05:00 +15°C° 0 mm 1 m/S 755 mmHg 80%
    06:00 +15°C° 0 mm 1 m/S 755 mmHg 79%
    07:00 +18°C° 0 mm 1 m/S 755 mmHg 69%
    08:00 +19°C° 0 mm 2 m/S 755 mmHg 60%
    09:00 +21°C° 0 mm 2 m/S 755 mmHg 51%
    10:00 +23°C° 0 mm 2 m/S 755 mmHg 45%
    11:00 +24°C° 0 mm 2 m/S 754 mmHg 39%
    12:00 +26°C° 0 mm 1 m/S 754 mmHg 34%
    13:00 +26°C° 0 mm 2 m/S 754 mmHg 33%
    14:00 +27°C° 0 mm 2 m/S 753 mmHg 32%
    15:00 +27°C° 0 mm 2 m/S 753 mmHg 31%
    16:00 +27°C° 0 mm 2 m/S 753 mmHg 35%
    17:00 +26°C° 0 mm 2 m/S 753 mmHg 39%
    18:00 +25°C° 0 mm 2 m/S 753 mmHg 44%
    19:00 +24°C° 0 mm 2 m/S 754 mmHg 48%
    20:00 +21°C° 0 mm 3 m/S 755 mmHg 52%
    21:00 +20°C° 0 mm 3 m/S 755 mmHg 57%
    22:00 +19°C° 0 mm 2 m/S 755 mmHg 60%
    23:00 +18°C° 0 mm 2 m/S 755 mmHg 64%

    übermorgen, 27 April, Freitag

    Zeit Temperatur Niederschläge Wind Luftdruck Luftfeuchtigkeit
    00:00 +17°C° 0 mm 2 m/S 755 mmHg 67%
    01:00 +17°C° 0 mm 2 m/S 755 mmHg 68%
    02:00 +16°C° 0 mm 1 m/S 755 mmHg 69%
    03:00 +16°C° 0 mm 1 m/S 755 mmHg 69%
    04:00 +16°C° 0 mm 1 m/S 755 mmHg 68%
    05:00 +16°C° 0 mm 1 m/S 755 mmHg 68%
    06:00 +18°C° 0 mm 1 m/S 755 mmHg 67%
    07:00 +19°C° 0 mm 1 m/S 754 mmHg 60%
    08:00 +21°C° 0 mm 1 m/S 754 mmHg 54%
    09:00 +23°C° 0 mm 1 m/S 754 mmHg 48%
    10:00 +24°C° 0 mm 2 m/S 754 mmHg 44%
    11:00 +25°C° 0 mm 2 m/S 753 mmHg 40%
    12:00 +26°C° 0 mm 2 m/S 753 mmHg 37%
    13:00 +27°C° 0 mm 3 m/S 752 mmHg 36%
    14:00 +27°C° 0 mm 3 m/S 752 mmHg 35%
    15:00 +28°C° 0 mm 4 m/S 752 mmHg 35%
    16:00 +27°C° 0 mm 3 m/S 752 mmHg 38%
    17:00 +26°C° 0 mm 3 m/S 752 mmHg 42%
    18:00 +25°C° 0 mm 3 m/S 752 mmHg 45%
    19:00 +24°C° 0 mm 2 m/S 752 mmHg 45%
    20:00 +23°C° 0 mm 2 m/S 752 mmHg 46%
    21:00 +22°C° 0 mm 1 m/S 752 mmHg 46%
    22:00 +21°C° 0 mm 1 m/S 752 mmHg 46%
    23:00 +21°C° 0 mm 1 m/S 752 mmHg 46%

    28 April, Samstag

    Zeit Temperatur Niederschläge Wind Luftdruck Luftfeuchtigkeit
    00:00 +21°C° 0 mm 1 m/S 751 mmHg 46%
    01:00 +20°C° 0 mm 1 m/S 751 mmHg 47%
    02:00 +19°C° 0 mm 2 m/S 751 mmHg 47%
    03:00 +19°C° 0 mm 2 m/S 751 mmHg 48%
    04:00 +19°C° 0 mm 3 m/S 751 mmHg 49%
    05:00 +19°C° 0 mm 3 m/S 751 mmHg 50%
    06:00 +19°C° 0 mm 3 m/S 751 mmHg 51%
    07:00 +21°C° 0 mm 3 m/S 751 mmHg 47%
    08:00 +24°C° 0 mm 3 m/S 751 mmHg 43%
    09:00 +26°C° 0 mm 3 m/S 751 mmHg 39%
    10:00 +27°C° 0 mm 3 m/S 751 mmHg 36%
    11:00 +28°C° 0 mm 3 m/S 751 mmHg 34%
    12:00 +29°C° 0 mm 3 m/S 751 mmHg 32%
    13:00 +29°C° 0 mm 2 m/S 751 mmHg 31%
    14:00 +30°C° 0 mm 2 m/S 751 mmHg 30%
    15:00 +30°C° 0 mm 2 m/S 751 mmHg 29%
    16:00 +29°C° 0 mm 3 m/S 751 mmHg 33%
    17:00 +28°C° 0 mm 3 m/S 752 mmHg 37%
    18:00 +26°C° 0 mm 3 m/S 752 mmHg 41%
    19:00 +26°C° 0 mm 3 m/S 753 mmHg 42%
    20:00 +25°C° 0 mm 3 m/S 754 mmHg 43%
    21:00 +23°C° 0 mm 4 m/S 754 mmHg 44%
    22:00 +24°C° 0,1 mm 3 m/S 755 mmHg 48%
    23:00 +22°C° 0,1 mm 3 m/S 755 mmHg 51%

    29 April, Sonntag

    Zeit Temperatur Niederschläge Wind Luftdruck Luftfeuchtigkeit
    00:00 +21°C° 0,1 mm 3 m/S 755 mmHg 55%
    01:00 +21°C° 0,3 mm 2 m/S 755 mmHg 59%
    02:00 +20°C° 0,3 mm 2 m/S 755 mmHg 63%
    03:00 +20°C° 0,3 mm 2 m/S 755 mmHg 67%
    04:00 +21°C° 0,1 mm 1 m/S 756 mmHg 68%
    05:00 +21°C° 0,1 mm 1 m/S 756 mmHg 68%
    06:00 +21°C° 0,1 mm 1 m/S 756 mmHg 69%
    07:00 +22°C° 0 mm 1 m/S 756 mmHg 64%
    08:00 +23°C° 0 mm 2 m/S 757 mmHg 60%
    09:00 +24°C° 0 mm 2 m/S 757 mmHg 55%
    10:00 +25°C° 0 mm 2 m/S 757 mmHg 50%
    11:00 +27°C° 0 mm 3 m/S 756 mmHg 46%
    12:00 +28°C° 0 mm 3 m/S 756 mmHg 41%
    13:00 +28°C° 0 mm 4 m/S 756 mmHg 40%
    14:00 +28°C° 0 mm 4 m/S 755 mmHg 40%
    15:00 +29°C° 0 mm 5 m/S 755 mmHg 39%
    16:00 +27°C° 0 mm 5 m/S 755 mmHg 43%
    17:00 +26°C° 0 mm 5 m/S 755 mmHg 47%
    18:00 +24°C° 0 mm 6 m/S 755 mmHg 51%
    19:00 +23°C° 0 mm 5 m/S 756 mmHg 54%
    20:00 +21°C° 0 mm 5 m/S 756 mmHg 56%
    21:00 +19°C° 0 mm 4 m/S 757 mmHg 58%
    22:00 +19°C° 0 mm 4 m/S 757 mmHg 58%
    23:00 +18°C° 0 mm 4 m/S 757 mmHg 58%

    30 April, Montag

    Zeit Temperatur Niederschläge Wind Luftdruck Luftfeuchtigkeit
    00:00 +17°C° 0 mm 3 m/S 757 mmHg 58%
    01:00 +17°C° 0 mm 3 m/S 757 mmHg 57%
    02:00 +16°C° 0 mm 2 m/S 756 mmHg 57%
    03:00 +15°C° 0 mm 2 m/S 756 mmHg 56%
    04:00 +16°C° 0 mm 1 m/S 756 mmHg 56%
    05:00 +16°C° 0 mm 1 m/S 757 mmHg 55%
    06:00 +16°C° 0 mm 1 m/S 757 mmHg 55%
    07:00 +19°C° 0 mm 1 m/S 757 mmHg 50%
    08:00 +19°C° 0 mm 2 m/S 756 mmHg 45%
    09:00 +21°C° 0 mm 2 m/S 756 mmHg 40%
    10:00 +22°C° 0 mm 3 m/S 756 mmHg 39%
    11:00 +25°C° 0 mm 3 m/S 755 mmHg 37%
    12:00 +26°C° 0 mm 3 m/S 755 mmHg 36%
    13:00 +26°C° 0 mm 4 m/S 754 mmHg 36%
    14:00 +27°C° 0 mm 4 m/S 754 mmHg 36%
    15:00 +27°C° 0 mm 4 m/S 754 mmHg 36%
    16:00 +26°C° 0 mm 4 m/S 754 mmHg 39%
    17:00 +26°C° 0 mm 4 m/S 754 mmHg 43%
    18:00 +25°C° 0 mm 4 m/S 754 mmHg 46%
    19:00 +22°C° 0 mm 4 m/S 754 mmHg 48%
    20:00 +21°C° 0 mm 3 m/S 755 mmHg 50%
    21:00 +19°C° 0 mm 3 m/S 755 mmHg 51%
    22:00 +18°C° 0 mm 3 m/S 755 mmHg 51%
    23:00 +17°C° 0 mm 3 m/S 755 mmHg 51%
    Mehr zeigen